Wind_Speed
7 7 6 5 3 3 3 2 1 1 1 1 2 3 4 5 7 9 9 9 10 11 12 13 13 14 15 15 15 14 14 12 10 9 12 13 13 13 13 13 13 15
6 6 7 6 4 4 2 2 1 1 1 3 4 5 5 7 8 8 9 10 11 11 12 13 14 14 16 16 16 16 15 13 12 11 12 13 14 14 14 14 15 15
5 5 5 6 5 4 2 1 2 1 3 5 6 6 7 8 9 9 10 11 11 12 12 13 14 14 15 16 16 16 16 15 14 13 12 14 15 15 15 16 17 16
5 4 4 5 4 3 2 2 3 3 5 6 7 7 8 9 10 10 11 11 12 13 13 13 14 14 15 15 16 17 16 15 15 13 14 17 17 18 18 17 17 17
5 5 5 4 4 4 3 4 5 5 6 7 8 8 9 10 11 11 12 12 13 14 15 15 15 15 15 16 16 17 17 16 15 13 16 20 20 20 19 17 18 19
5 6 5 5 5 5 5 6 7 7 7 8 8 9 10 11 12 12 13 14 14 15 16 16 16 16 16 16 17 18 18 17 16 16 19 21 21 21 19 19 20 21
6 6 6 6 5 6 6 6 6 7 8 9 10 10 11 12 13 13 14 15 16 17 17 17 18 17 17 16 18 19 19 19 19 19 21 22 23 23 22 21 22 23
6 6 6 6 6 6 6 6 7 8 9 10 11 11 12 13 14 14 15 16 17 18 18 19 19 18 18 18 18 20 20 21 21 21 23 24 24 24 24 23 23 25
6 6 6 6 6 6 7 8 9 9 10 11 12 13 13 14 15 16 16 17 18 19 19 20 20 20 19 19 19 20 21 22 22 22 23 24 25 25 25 24 24 26
6 6 7 7 7 7 8 9 10 11 12 13 13 14 14 15 16 17 17 18 19 20 20 21 22 21 21 20 20 21 22 23 23 23 24 25 26 26 26 25 26 27
6 7 8 8 8 9 9 10 11 12 13 13 14 15 16 17 17 18 18 19 20 20 21 22 22 23 22 22 21 21 22 24 24 24 25 26 26 27 26 26 27 28
7 8 9 9 9 10 10 11 12 13 14 15 15 16 17 18 18 19 19 20 21 21 22 23 23 23 24 23 22 22 23 24 24 25 26 27 28 28 28 28 28 29
8 9 10 10 10 10 11 12 13 14 15 15 15 16 17 18 19 20 20 21 22 22 22 23 24 24 24 24 23 23 23 24 25 26 27 28 29 29 29 30 30 30
8 10 10 10 10 11 12 13 14 15 15 16 16 17 18 19 20 20 21 22 23 23 23 24 24 25 25 24 23 23 23 25 25 26 28 29 30 31 31 31 32 32
9 11 11 10 11 12 13 14 14 15 16 16 17 18 18 20 20 20 22 23 23 24 24 24 26 26 25 24 24 24 24 24 25 26 28 30 31 32 32 33 34 34
10 11 11 11 12 13 13 14 15 16 17 17 17 18 19 20 20 21 22 23 24 24 25 26 27 27 25 24 24 25 24 25 26 28 30 31 33 34 35 35 35 35
11 11 12 12 13 13 14 15 16 16 17 18 18 19 19 20 21 22 22 23 24 25 26 27 27 27 25 25 24 23 24 25 28 30 30 31 33 35 36 35 35 35
11 11 12 13 13 14 14 15 16 17 18 18 18 19 20 21 22 23 23 24 25 26 28 28 28 27 26 25 25 23 23 25 27 29 30 31 32 33 34 34 34 34
11 12 13 13 13 14 15 15 17 17 17 18 19 20 21 22 23 23 24 25 25 27 28 29 29 28 26 26 26 25 24 25 27 29 30 31 32 33 34 34 35 35
12 13 13 13 13 14 15 16 17 17 18 19 20 21 22 23 24 24 25 26 27 27 29 31 30 29 28 27 26 25 24 24 27 29 30 31 32 34 36 36 36 36
12 13 13 14 14 14 15 16 17 18 19 20 20 22 22 23 24 25 26 27 28 28 30 32 32 30 29 29 27 25 24 24 27 29 31 32 33 35 36 36 35 35
12 13 13 14 14 15 16 17 18 19 20 20 21 22 23 24 25 26 27 29 29 30 31 33 33 31 30 30 29 26 24 25 28 30 30 32 33 34 34 34 34 34
12 13 13 14 15 16 17 18 19 20 20 20 21 23 24 25 26 27 29 30 31 30 31 33 34 33 31 31 30 27 24 26 28 30 30 32 33 33 34 33 33 32
12 13 14 15 16 17 18 19 20 21 21 21 21 23 25 26 27 29 30 30 31 31 31 33 35 35 32 31 31 27 25 25 27 28 30 31 31 32 32 32 32 32
14 15 16 16 17 18 18 20 21 22 22 22 22 24 26 27 28 29 31 32 32 32 31 32 35 35 32 31 30 27 24 24 26 27 29 30 30 32 32 31 31 31
15 15 15 16 17 18 19 21 23 23 23 23 24 25 27 28 29 30 32 34 33 33 33 33 34 34 32 30 28 26 24 23 24 27 29 29 30 31 31 31 29 29
Wind_Direction
141 143 139 131 144 174 163 170 186 132 115 265 267 272 286 299 313 333 345 345 344 345 346 345 344 343 342 342 343 342 339 337 333 315 301 304 312 313 313 314 308 304
145 149 147 144 171 210 196 185 215 160 207 255 275 290 295 302 316 333 336 335 337 339 338 336 335 334 333 335 336 333 332 331 324 314 305 305 307 309 309 304 300 298
150 157 160 159 186 221 214 223 253 236 242 262 282 294 297 306 320 328 327 329 331 330 329 325 325 325 325 326 326 325 327 323 319 316 308 303 304 304 301 297 296 296
163 173 179 173 193 229 230 237 251 242 252 272 285 292 300 310 316 318 321 324 322 319 319 317 316 317 317 318 317 317 319 316 316 314 302 299 300 298 297 296 295 295
181 188 199 197 205 229 231 229 243 251 264 281 291 296 302 306 308 313 317 316 314 312 312 311 311 312 312 313 313 312 312 312 312 305 293 296 300 299 300 299 296 295
196 205 217 223 224 235 239 238 249 265 279 289 294 296 300 303 306 310 309 308 306 305 306 307 307 309 309 309 309 309 309 308 307 301 296 300 303 303 303 299 297 298
209 223 230 234 240 249 257 263 272 284 293 294 296 298 300 302 303 303 302 301 302 303 304 305 305 307 307 307 307 308 307 305 304 303 302 303 304 304 303 301 299 300
219 234 239 240 249 260 272 283 288 295 298 297 298 300 299 299 299 299 299 299 301 303 304 303 303 305 306 305 304 305 304 304 303 302 302 302 301 301 302 301 299 298
227 241 249 256 266 278 289 295 298 301 301 300 300 299 297 297 297 298 299 300 300 302 303 303 303 304 304 304 303 302 301 301 302 301 299 298 297 297 298 298 296 295
238 250 259 268 277 286 293 296 297 299 300 299 298 298 298 298 298 299 300 300 301 303 304 305 304 303 303 303 303 301 298 298 299 298 296 294 293 293 295 294 293 293
244 255 264 273 280 288 294 295 296 297 298 298 298 298 298 297 298 299 300 301 302 304 305 305 304 303 301 302 303 300 297 296 296 296 295 293 292 291 292 291 291 291
248 258 267 275 282 290 295 297 299 299 298 298 298 297 296 296 298 300 301 301 302 303 304 304 304 301 300 301 302 300 297 295 295 296 294 292 291 291 291 290 290 290
251 262 270 278 286 293 296 297 298 297 296 297 296 295 296 297 298 299 300 301 302 303 304 304 304 301 299 300 300 299 297 295 296 296 293 291 291 291 291 291 291 291
254 265 273 281 289 292 293 294 295 296 296 297 297 296 296 297 297 299 301 301 302 303 305 304 302 300 299 299 300 299 297 294 294 294 293 292 292 292 293 294 294 293
259 268 274 282 289 290 292 294 295 296 296 296 297 296 296 296 298 300 301 302 303 303 304 303 299 298 299 300 300 299 297 296 295 295 294 293 292 293 294 294 294 293
263 272 278 284 288 290 293 295 296 297 297 297 298 296 296 298 299 301 301 301 303 304 303 302 299 298 300 302 302 299 296 296 296 295 293 292 291 292 293 293 293 292
267 276 282 285 289 292 295 297 296 296 296 296 297 296 298 300 300 301 302 302 303 302 302 302 301 301 303 305 304 296 287 287 288 288 288 287 288 290 291 292 291 291
273 279 282 285 290 293 295 295 294 293 294 295 298 300 302 302 300 301 303 303 301 300 301 303 303 304 305 305 303 296 287 283 283 283 284 284 285 286 288 288 288 288
275 279 282 286 291 293 293 293 292 293 296 299 301 303 302 301 301 301 302 302 301 300 303 304 304 306 306 305 304 299 291 286 284 284 284 284 283 284 284 283 283 284
276 279 282 287 291 292 292 292 293 295 299 300 301 301 300 299 300 301 302 303 302 301 303 304 305 306 307 307 305 299 291 287 286 285 284 282 281 281 281 281 281 282
275 276 280 285 289 291 291 292 293 295 297 299 299 298 298 299 300 300 301 302 302 300 300 302 305 306 306 306 303 296 289 287 286 284 282 282 281 282 282 282 282 283
270 272 277 283 287 288 288 289 291 293 296 299 299 298 298 298 298 299 300 300 301 299 296 299 305 306 304 306 304 297 291 288 286 285 284 283 284 285 285 285 285 285
268 271 276 281 282 283 285 288 290 292 295 297 296 296 297 296 296 297 298 297 298 297 295 297 303 306 304 305 306 300 293 289 288 287 286 285 285 286 287 286 287 287
263 267 272 275 278 280 284 288 290 291 294 295 294 293 294 295 296 296 298 297 296 296 296 295 300 305 305 304 307 304 295 290 289 288 286 285 285 286 287 286 287 288
258 264 270 273 277 282 287 290 291 292 295 295 292 292 293 294 295 294 296 298 295 294 294 292 296 304 306 305 308 307 297 290 289 286 283 283 284 285 286 286 286 287
262 268 274 277 282 286 290 291 292 293 294 294 293 292 292 292 292 291 293 296 296 294 294 295 296 303 309 310 309 308 300 290 285 282 281 282 284 285 286 286 287 287
Height
915 916 917 917 917 917 917 917 917 917 917 917 918 918 917 916 916 915 914 913 913 912 911 910 909 908 907 907 906 904 904 903 902 901 901 900 899 898 897 896 895 894
914 915 915 916 916 916 916 916 916 916 916 916 916 916 915 915 914 913 913 912 911 911 910 909 908 907 906 905 904 903 902 901 900 900 899 898 897 896 895 895 894 893
913 914 914 915 915 915 915 915 915 915 915 915 915 914 914 913 913 912 912 911 910 909 908 908 907 906 905 904 903 902 901 900 899 898 897 896 896 894 894 893 892 891
912 913 913 913 913 913 913 914 914 914 914 914 913 913 912 912 911 911 910 909 908 908 907 907 906 905 904 903 902 901 899 899 897 896 895 894 894 893 892 891 889 888
911 911 912 912 912 912 912 913 913 913 912 912 912 911 911 910 910 909 908 908 907 906 906 905 904 904 903 901 900 899 898 897 896 895 894 892 892 890 889 888 887 886
910 910 910 911 911 911 911 911 911 911 910 910 910 910 909 909 908 907 907 906 906 905 904 903 902 901 901 899 898 897 896 894 893 893 891 890 889 887 886 886 884 883
908 908 909 909 909 909 909 909 909 909 909 908 908 908 908 907 907 906 905 905 904 903 902 901 900 899 898 897 896 894 893 892 891 890 889 887 886 884 884 883 881 880
906 907 907 907 908 908 908 908 907 907 907 907 906 906 906 905 905 904 904 903 901 900 899 898 897 896 896 894 893 892 891 890 888 887 886 884 883 882 881 880 879 877
905 905 905 906 906 906 906 905 905 905 905 905 904 904 904 904 903 902 901 900 899 898 896 895 894 893 893 892 891 890 888 887 886 885 883 881 880 879 878 877 876 874
903 903 904 904 904 904 904 903 903 903 903 902 902 902 901 901 900 899 898 897 896 895 893 893 892 891 890 889 888 887 886 884 883 882 881 879 877 876 875 874 873 871
901 901 902 902 902 902 901 901 901 901 901 901 900 900 899 898 898 897 896 894 893 892 891 890 889 888 887 886 886 885 883 882 880 879 878 876 874 873 872 871 870 867
899 900 900 900 900 900 899 899 899 899 899 898 898 897 896 896 895 894 893 892 891 890 889 887 886 885 884 883 882 882 880 879 878 876 874 873 871 870 869 867 866 864
897 898 898 898 898 897 897 897 897 897 896 896 895 895 894 893 892 891 890 889 888 887 886 884 883 882 881 880 879 878 877 876 874 873 870 869 868 866 865 864 862 861
896 896 896 896 896 895 895 895 895 894 894 893 893 892 891 890 889 889 887 886 885 884 883 882 880 879 878 877 876 875 874 872 871 869 867 865 864 862 861 860 858 857
894 894 894 894 894 893 893 893 892 892 891 891 890 889 889 888 887 886 884 883 882 881 880 878 877 876 875 874 873 871 870 869 868 866 864 862 860 858 857 856 854 852
892 892 892 892 891 891 891 890 890 890 889 888 888 887 886 885 884 883 881 880 879 877 876 875 873 872 872 871 870 868 867 866 864 862 861 858 856 854 853 851 850 848
890 890 890 889 889 889 888 888 888 887 886 886 885 884 883 882 880 879 878 877 876 874 873 871 870 869 869 868 867 866 865 864 862 859 858 856 854 851 849 847 846 844
888 888 887 887 887 886 886 886 885 885 884 883 882 881 880 879 877 876 875 874 873 871 869 868 866 866 866 865 864 864 863 862 860 857 855 853 851 849 846 844 842 841
886 885 885 885 885 884 884 884 883 882 881 880 879 878 877 875 874 873 872 871 870 868 866 864 863 862 862 862 860 860 860 858 856 854 852 850 848 846 843 841 839 837
883 883 882 882 882 882 881 881 880 879 878 878 876 875 874 872 871 870 869 868 866 865 863 860 859 859 859 858 857 856 856 855 852 850 847 846 844 841 839 836 835 833
880 880 880 880 880 880 879 878 878 876 876 875 874 873 871 869 868 867 865 865 863 862 860 856 855 856 855 854 853 853 852 851 848 845 843 841 838 836 834 832 830 829
878 878 878 878 877 877 876 875 875 874 873 873 871 870 868 866 866 864 862 861 860 858 857 853 851 852 852 851 849 849 848 846 843 840 838 836 833 831 829 827 826 825
876 875 876 875 875 875 874 873 872 871 870 870 868 866 865 864 862 861 860 858 856 855 853 850 847 848 848 847 845 845 844 842 839 836 834 831 829 826 825 823 822 821
873 873 873 873 872 872 871 870 870 869 868 867 866 864 862 861 859 858 856 854 853 851 850 848 844 843 844 843 841 840 840 838 835 832 830 827 825 822 821 820 818 817
872 871 871 871 870 869 869 868 867 866 865 864 863 861 859 858 856 854 852 850 849 848 847 845 842 839 839 839 837 836 836 834 832 829 826 823 821 819 817 816 815 813
869 869 868 868 867 867 866 865 864 863 862 861 859 858 856 854 853 852 848 846 845 844 842 841 839 836 835 834 833 832 831 830 828 825 822 819 818 815 813 811 811 810